Lid_Strength_Index
-0 0 -0 2 8 10 13 8 6 7 6 4 4 5 6 5 7 9 1 0 -0 -0 -1 -1 -2 -1 -1 -1 -1 -1 -1 -1 -1 -1 -1 -1 -1 -1 -1 -1 -2 -2 -1 -1 -1 -1 -1 -1 -1
1 1 3 4 11 13 9 6 7 6 5 3 4 4 5 6 3 3 2 0 -0 -0 -1 -1 -2 -1 -1 -1 -1 -1 -1 -1 -1 -1 -1 -2 -2 -1 -1 -1 -1 -1 -1 -1 -1 -1 -1 -1 -1
0 2 6 9 12 13 9 6 6 5 4 4 4 4 4 5 3 2 1 0 -0 -0 -1 -1 -2 -2 -1 -1 -1 -1 -1 -2 -1 -1 -1 -1 -1 -1 -1 -1 -1 -1 -1 -1 -1 -2 -2 -2 -2
4 5 5 10 12 9 7 6 5 5 4 3 4 6 3 2 2 1 0 -0 0 -0 -1 -1 -2 -2 -1 -1 -1 -1 -1 -1 -1 -1 -1 -1 -1 -1 -1 -1 -1 -1 -1 -1 -2 -2 -2 -2 -2
3 5 7 10 11 9 5 4 4 5 4 4 4 6 5 2 1 0 0 0 0 -0 -1 -1 -2 -2 -2 -1 -1 -1 -1 -1 -1 -1 -1 -1 -1 -1 -1 -1 -1 -1 -1 -1 -1 -2 -2 -2 -2
7 6 8 13 13 7 5 4 4 5 5 4 5 5 5 1 1 1 0 0 -0 -0 -1 -1 -1 -2 -2 -2 -2 -2 -2 -2 -2 -1 -1 -1 -1 -1 -1 -1 -1 -1 -1 -1 -1 -2 -2 -1 -2
8 7 8 9 10 8 5 4 5 5 5 5 3 6 4 2 1 0 0 0 -0 -0 -0 -1 -1 -1 -2 -2 -2 -2 -2 -2 -1 -1 -1 -1 -2 -2 -1 -1 -1 -1 -1 -1 -1 -1 -1 -2 -2
5 6 8 7 9 9 5 5 4 5 5 3 2 6 6 3 1 1 0 0 0 -0 -0 -0 -1 -1 -1 -1 -2 -2 -2 -1 -1 -1 -2 -2 -2 -2 -1 -1 -1 -1 -1 -1 -1 -1 -2 -2 -2
4 8 8 7 8 8 5 5 4 4 5 3 3 3 2 1 1 1 1 1 1 0 0 -0 -0 -1 -1 -1 -1 -2 -1 -1 -2 -2 -2 -1 -1 -1 -1 -2 -2 -1 -1 -1 -1 -2 -2 -2 -2
5 8 7 5 6 8 5 4 4 4 4 4 3 2 2 1 2 2 2 2 1 1 0 0 -0 -0 -1 -1 -1 -1 -1 -1 -0 -1 -2 -0 -1 -1 -1 -2 -3 -2 -2 -2 -2 -2 -2 -2 -1
5 7 5 5 4 4 5 4 4 4 5 4 4 4 2 2 2 2 2 2 1 1 0 0 -0 -2 -0 -0 -1 -1 -1 -0 -1 -2 -2 -2 -1 -1 -1 -1 -1 -1 -2 -1 -2 -2 -1 -1 -1
6 5 4 5 4 4 5 4 4 4 4 4 3 2 2 2 2 2 2 2 1 1 1 0 -0 -1 -1 -1 -1 -1 -1 -1 -1 -1 -2 -2 -1 -1 -1 -1 -1 -1 -2 -1 -2 -1 -2 -1 -1
6 5 4 4 4 4 5 5 5 4 3 3 2 2 3 2 2 2 1 1 1 1 1 0 -0 -1 -1 -1 -1 -1 -1 -2 -1 -1 -1 -1 -1 -0 -1 -0 -1 -2 -2 -1 -1 -1 -1 -1 -1
4 4 4 4 4 4 5 5 4 4 3 4 3 3 3 2 2 2 1 1 1 1 1 0 0 -1 -1 -1 -1 -1 -2 -1 -2 -0 -1 -2 -1 -1 -1 -1 -1 -1 -2 -2 -1 -1 -0 -0 -0
4 6 5 5 4 5 4 6 6 3 3 4 4 3 3 2 2 2 1 1 1 1 0 0 0 -0 -0 -1 -1 -1 -0 -1 -0 -1 -2 -2 -1 -1 -1 -1 -0 -1 -2 -1 -2 -1 -1 -0 -0
6 5 8 5 5 4 5 8 6 4 4 4 4 3 3 2 2 1 1 1 1 1 1 0 0 0 -0 -0 -0 -1 -1 -2 -1 -1 -1 -1 -1 -1 -2 -0 -0 -2 -2 -1 -0 -0 0 0 0
6 9 8 7 5 5 6 7 6 4 4 4 4 3 3 3 2 2 1 1 1 1 1 1 -0 0 0 -0 -0 -1 -1 -1 -1 -1 -1 -1 -1 -1 -2 -1 -2 -2 -1 -0 -0 0 0 1 1
8 8 8 8 6 6 6 6 5 5 4 4 4 4 4 3 3 2 1 1 1 1 0 0 0 -0 0 -0 -1 -0 -0 -0 -1 -1 0 -1 0 -1 -1 -1 -1 -1 -0 0 0 0 0 0 1
7 7 8 7 6 9 9 7 6 6 5 4 4 4 4 3 2 2 2 1 1 1 1 1 1 1 0 1 1 1 1 1 0 -1 -1 -0 -0 -1 -2 -1 -1 -1 0 0 -0 0 1 1 0
7 8 8 6 6 7 8 7 6 6 5 4 4 4 4 3 3 2 2 2 1 1 1 1 1 1 1 1 1 1 1 0 -0 -1 -0 -0 -2 -1 -1 -1 -0 -1 0 0 0 0 1 1 0
7 8 8 8 6 6 7 8 6 5 4 4 4 3 3 3 3 3 3 2 2 2 2 1 1 1 1 0 0 0 1 1 1 2 1 0 -0 -1 -1 -1 -1 -1 -0 1 0 0 1 2 1
8 6 7 8 8 11 7 12 8 6 6 5 4 4 4 3 3 3 3 3 2 2 1 1 1 1 1 0 1 2 3 3 3 3 1 0 -1 -1 -2 -1 -1 -1 -0 0 0 -0 0 1 2
7 6 6 7 8 8 8 10 8 6 7 6 5 4 3 3 3 3 3 2 2 1 1 1 1 1 1 1 1 2 3 3 3 2 1 0 -0 -1 -1 -1 -1 -1 -0 -0 -0 0 0 0 1
5 6 7 7 8 11 9 10 9 8 7 6 4 4 3 3 3 3 2 2 2 1 2 2 2 1 1 1 1 2 2 2 3 1 1 2 0 -0 -1 -1 -1 -1 -0 -0 -0 -0 -0 0 1
6 8 11 12 12 12 8 9 9 6 5 5 5 4 3 3 3 3 3 3 3 3 3 2 2 2 1 1 1 1 1 1 1 1 1 2 1 1 0 -0 -0 -0 -1 -1 -1 -0 -0 0 1
7 8 11 14 13 12 8 11 9 5 4 4 4 3 3 3 3 3 4 4 4 5 2 2 2 2 1 1 1 1 1 1 1 1 1 1 1 1 -0 -0 -1 -1 -1 -1 -1 -0 -0 0 1
7 9 7 10 9 11 10 8 6 5 5 4 4 4 3 2 3 2 2 4 3 3 3 2 2 2 2 1 1 1 1 1 1 1 0 0 0 0 -0 -0 -0 -1 -1 -1 -0 -0 1 1 1
6 6 9 9 14 15 11 10 10 8 6 5 4 4 3 3 3 2 2 3 3 4 2 2 2 2 1 1 1 1 1 1 0 0 1 0 0 0 0 0 -0 -0 -0 0 1 1 1 2 2
7 8 8 8 10 13 14 11 6 7 5 5 5 4 4 3 3 2 2 3 3 2 2 2 2 2 2 1 1 1 1 1 0 1 1 0 0 0 0 0 0 0 1 1 2 3 3 3 3
6 7 8 11 12 10 11 11 5 4 5 5 4 4 3 2 1 2 2 3 3 3 3 2 2 2 1 1 1 1 1 1 1 1 1 0 0 0 0 0 0 1 1 2 3 4 4 4 4